This is the latest recevied weather packets stored in our database for station/object W1RCY. If no packets are shown the sender has not sent any weather packets the latest 1 day(s).
| Time | Temp. | Humidity | Pressure | Rain* | Wind** | Luminosity | Snow |
|---|---|---|---|---|---|---|---|
| 1778016050 | 26.67° C | 37% | 1002.4 hPa | 0 mm | 5.81 m/s, 174° | 130 W/m² | - |
| 1778015746 | 26.67° C | 37% | 1002.2 hPa | 0 mm | 2.68 m/s, 181° | 144 W/m² | - |
| 1778015443 | 26.67° C | 36% | 1002.4 hPa | 0 mm | 6.26 m/s, 170° | 171 W/m² | - |
| 1778015140 | 27.22° C | 36% | 1002.1 hPa | 0 mm | 1.79 m/s, 163° | 121 W/m² | - |
| 1778014837 | 27.22° C | 35% | 1001.9 hPa | 0 mm | 4.02 m/s, 166° | 234 W/m² | - |
| 1778014535 | 27.22° C | 35% | 1001.9 hPa | 0 mm | 5.36 m/s, 176° | 265 W/m² | - |
| 1778014232 | 27.22° C | 35% | 1002 hPa | 0 mm | 3.13 m/s, 216° | 282 W/m² | - |
| 1778013930 | 27.78° C | 35% | 1001.9 hPa | 0 mm | 6.26 m/s, 181° | 348 W/m² | - |
| 1778013627 | 27.22° C | 35% | 1002.1 hPa | 0 mm | 8.05 m/s, 159° | 425 W/m² | - |
| 1778013323 | 27.22° C | 35% | 1001.9 hPa | 0 mm | 4.92 m/s, 166° | 471 W/m² | - |
| 1778013021 | 27.22° C | 36% | 1002.2 hPa | 0 mm | 3.13 m/s, 156° | 493 W/m² | - |
| 1778012716 | 26.67° C | 37% | 1002.1 hPa | 0 mm | 5.36 m/s, 182° | 134 W/m² | - |
| 1778012412 | 27.22° C | 36% | 1001.9 hPa | 0 mm | 9.83 m/s, 176° | 229 W/m² | - |
| 1778012110 | 27.22° C | 38% | 1002.3 hPa | 0 mm | 3.58 m/s, 172° | 235 W/m² | - |
| 1778011807 | 27.22° C | 37% | 1002.2 hPa | 0 mm | 4.92 m/s, 182° | 488 W/m² | - |
| 1778011505 | 27.22° C | 38% | 1002.1 hPa | 0 mm | 8.49 m/s, 178° | 538 W/m² | - |
| 1778011201 | 27.22° C | 38% | 1002.2 hPa | 0 mm | 5.36 m/s, 197° | 192 W/m² | - |
| 1778010898 | 27.22° C | 37% | 1002.3 hPa | 0 mm | 2.24 m/s, 191° | 605 W/m² | - |
| 1778010595 | 27.22° C | 36% | 1002.6 hPa | 0 mm | 4.47 m/s, 192° | 170 W/m² | - |
| 1778010293 | 27.22° C | 36% | 1002.6 hPa | 0 mm | 5.81 m/s, 192° | 260 W/m² | - |
| 1778010001 | 27.22° C | 36% | 1002.3 hPa | 0 mm | 7.6 m/s, 162° | 165 W/m² | - |
| 1778009690 | 27.22° C | 36% | 1002.3 hPa | 0 mm | 6.71 m/s, 334° | 573 W/m² | - |
| 1778009387 | 26.67° C | 36% | 1002.7 hPa | 0 mm | 8.94 m/s, 175° | 627 W/m² | - |
| 1778009086 | 26.67° C | 37% | 1002.6 hPa | 0 mm | 8.49 m/s, 164° | 277 W/m² | - |
| 1778008783 | 27.22° C | 37% | 1002.6 hPa | 0 mm | 8.49 m/s, 182° | 166 W/m² | - |
* Rain latest hour (hover to see other rain measurements)
** Current wind speed in m/s (hover to see current wind gust speed)